HTV-9 (KOUNOTORI 9)

Last updated on Fri Aug 21 2020 00:02:12 GMT+0000 (Coordinated Universal Time)

1 45607U 20030A 20232.96503117 .00006946 00000-0 12576-3 0 9997 2 45607 51.6449 32.8183 0001405 55.6653 87.0094 15.50858600 14155
UTC large
Height (km)
Speed (km/s)
/
Latitude / Longitude
Inclination (degrees)
Orbital Period (minutes)
Azimuth
Elevation
Range (km)
Doppler Factor

Next 0 passes for location: London (51.5072 / 0.1276)

Sorry there are no passes over London.